This is the latest recevied weather packets stored in our database for station/object K0QED. If no packets are shown the sender has not sent any weather packets the latest 10 day(s).
| Time | Temp. | Humidity | Pressure | Rain* | Wind** | Luminosity | Snow |
|---|---|---|---|---|---|---|---|
| 1787873169 | 24.44° C | 43% | 1029.2 hPa | 0 mm | - | 170 W/m² | - |
| 1787872868 | 24.44° C | 43% | 1029.6 hPa | 0 mm | - | 339 W/m² | - |
| 1787872563 | 23.33° C | 44% | 1029.9 hPa | 0 mm | - | 242 W/m² | - |
| 1787872258 | 23.33° C | 43% | 1030 hPa | 0 mm | - | 70 W/m² | - |
| 1787871958 | 23.33° C | 44% | 1030 hPa | 0 mm | - | 66 W/m² | - |
| 1787871654 | 22.78° C | 43% | 1030.2 hPa | 0 mm | - | 62 W/m² | - |
| 1787871349 | 23.33° C | 41% | 1029.9 hPa | 0 mm | - | 55 W/m² | - |
| 1787871044 | 23.33° C | 40% | 1030.1 hPa | 0 mm | - | 50 W/m² | - |
| 1787870743 | 23.33° C | 41% | 1029.9 hPa | 0 mm | - | 60 W/m² | - |
| 1787870439 | 23.33° C | 41% | 1029.9 hPa | 0 mm | - | 63 W/m² | - |
| 1787870139 | 23.89° C | 40% | 1029.9 hPa | 0 mm | - | 60 W/m² | - |
| 1787869833 | 23.89° C | 39% | 1030.1 hPa | 0 mm | - | 64 W/m² | - |
| 1787869532 | 23.89° C | 37% | 1030.2 hPa | 0 mm | - | 70 W/m² | - |
| 1787869227 | 23.89° C | 37% | 1030.2 hPa | 0 mm | - | 81 W/m² | - |
| 1787868921 | 24.44° C | 38% | 1030.2 hPa | 0 mm | - | 88 W/m² | - |
| 1787868621 | 25° C | 38% | 1030.1 hPa | 0 mm | - | 124 W/m² | - |
| 1787868319 | 25° C | 36% | 1030.2 hPa | 0 mm | - | 153 W/m² | - |
| 1787868014 | 25° C | 38% | 1030.2 hPa | 0 mm | - | 151 W/m² | - |
| 1787867709 | 25.56° C | 37% | 1030.4 hPa | 0 mm | - | 151 W/m² | - |
| 1787867404 | 25.56° C | 36% | 1030.1 hPa | 0 mm | - | 151 W/m² | - |
| 1787867100 | 26.67° C | 35% | 1030.2 hPa | 0 mm | - | 224 W/m² | - |
| 1787866795 | 26.67° C | 33% | 1030.2 hPa | 0 mm | - | 584 W/m² | - |
| 1787866494 | 26.67° C | 36% | 1030.1 hPa | 0 mm | - | 558 W/m² | - |
| 1787866193 | 27.22° C | 33% | 1030.1 hPa | 0 mm | - | 549 W/m² | - |
| 1787865888 | 26.67° C | 33% | 1030.4 hPa | 0 mm | - | 551 W/m² | - |
* Rain latest hour (hover to see other rain measurements)
** Current wind speed in m/s (hover to see current wind gust speed)